Change the Weather History Date:

Monday, December 9, 2013

  Actual Average Record
Temperature  
Mean Temperature 30 °F -  
Max Temperature 34 °F 57 °F 75 °F (1996)
Min Temperature 24 °F 35 °F 10 °F (2005)
Degree Days  
Heating Degree Days 36    
Moisture  
Dew Point 25 °F    
Average Humidity 84    
Maximum Humidity 100    
Minimum Humidity 66    
Precipitation  
Precipitation 0.00 in - - ()
Sea Level Pressure  
Sea Level Pressure 30.24 in    
Wind  
Wind Speed 9 mph (NNE)    
Max Wind Speed 15 mph    
Max Gust Speed 26 mph    
Visibility 7 miles    
Events Fog    
Averages and records for this station are not official NWS values.
T = Trace of Precipitation, MM = Missing Value Source: NWS Daily Summary

Daily Weather History Graph

Daily Weather History Graph

Search for Another Location

Airport or City:

Trip Planner

Search our weather history database for the weather conditions in past years. The results will help you decide how hot, cold, wet, or windy it might be!

Date:

Astronomy

Dec. 09, 2013 Rise Set
Actual Time 7:23 AM CST 5:26 PM CST
Civil Twilight 6:56 AM CST 5:53 PM CST
Nautical Twilight 6:25 AM CST 6:24 PM CST
Astronomical Twilight 5:55 AM CST 6:54 PM CST
Moon 12:36 PM CST (12/9) 12:00 AM CST (12/9)
Length of Visible Light 10h 57m
Length of Day
10h 02m
Waxing Crescent, 51% of the Moon is Illuminated
Dec 9
Waxing Crescent
Dec 17
Full
Dec 25
Last Quarter
Jan 1
New
Jan 7
First Quarter

Hourly Weather History & Observations

Time (CST) Temp. Windchill Dew Point Humidity Pressure Visibility Wind Dir Wind Speed Gust Speed Precip Events Conditions
12:53 AM 30.0 °F 24.1 °F 30.0 °F 100% 30.13 in 0.5 mi ENE 5.8 mph - N/A Fog Light Freezing Fog
1:53 AM 30.0 °F 23.2 °F 30.0 °F 100% 30.12 in 0.8 mi East 6.9 mph - N/A   Mist
2:37 AM 30.9 °F 25.2 °F 30.0 °F 96% 30.12 in 1.0 mi East 5.8 mph - N/A   Overcast
2:53 AM 30.0 °F 23.2 °F 30.0 °F 100% 30.14 in 1.8 mi East 6.9 mph 26.5 mph N/A   Overcast
3:53 AM 28.9 °F 21.9 °F 28.9 °F 100% 30.14 in 1.5 mi NE 6.9 mph - N/A   Overcast
4:30 AM 28.9 °F 21.1 °F 28.0 °F 96% 30.14 in 3.0 mi NE 8.1 mph - N/A   Overcast
4:53 AM 28.0 °F 18.1 °F 28.0 °F 100% 30.15 in 3.0 mi ENE 11.5 mph - N/A   Overcast
5:09 AM 28.0 °F 18.1 °F 28.0 °F 100% 30.15 in 2.5 mi NNE 11.5 mph - N/A   Overcast
5:21 AM 28.0 °F 18.6 °F 27.0 °F 96% 30.15 in 3.0 mi NE 10.4 mph - N/A   Overcast
5:53 AM 28.0 °F 20.8 °F 27.0 °F 96% 30.19 in 4.0 mi NE 6.9 mph - N/A   Overcast
6:53 AM 28.0 °F 20.8 °F 28.0 °F 100% 30.23 in 4.0 mi NE 6.9 mph - N/A   Overcast
7:53 AM 28.0 °F 18.6 °F 27.0 °F 96% 30.26 in 5.0 mi NNE 10.4 mph - N/A   Overcast
8:10 AM 28.0 °F 20.0 °F 27.0 °F 96% 30.23 in 5.0 mi NE 8.1 mph - N/A   Overcast
8:44 AM 28.9 °F 18.2 °F 28.0 °F 96% 30.22 in 4.0 mi NE 13.8 mph - N/A   Overcast
8:53 AM 28.9 °F 19.8 °F 28.0 °F 96% 30.25 in 5.0 mi NNE 10.4 mph - N/A   Overcast
9:00 AM 28.9 °F 19.2 °F 28.0 °F 96% 30.23 in 5.0 mi NNE 11.5 mph - N/A   Overcast
9:51 AM 28.4 °F 17.0 °F 26.6 °F 93% 30.23 in 10.0 mi NNE 15.0 mph - N/A   Overcast
9:53 AM 28.0 °F 17.0 °F 26.1 °F 92% 30.25 in 10.0 mi NNE 13.8 mph - N/A   Overcast
10:40 AM 30.0 °F 20.5 °F 26.1 °F 85% 30.24 in 10.0 mi NE 11.5 mph 17.3 mph N/A   Overcast
10:53 AM 28.9 °F 18.6 °F 25.0 °F 85% 30.27 in 10.0 mi NE 12.7 mph - N/A   Overcast
11:53 AM 30.9 °F 22.8 °F 24.1 °F 76% 30.26 in 10.0 mi NNE 9.2 mph - N/A   Overcast
12:53 PM 33.1 °F 26.1 °F 23.0 °F 66% 30.22 in 10.0 mi NE 8.1 mph - N/A   Overcast
1:53 PM 34.0 °F 25.5 °F 24.1 °F 67% 30.20 in 10.0 mi North 11.5 mph - N/A   Overcast
2:07 PM 34.0 °F 25.5 °F 24.1 °F 67% 30.18 in 10.0 mi North 11.5 mph - N/A   Overcast
2:53 PM 33.1 °F 23.4 °F 24.1 °F 70% 30.21 in 10.0 mi NNW 13.8 mph - N/A   Overcast
3:18 PM 33.1 °F 25.5 °F 24.1 °F 70% 30.21 in 10.0 mi NNW 9.2 mph - N/A   Overcast
3:53 PM 32.0 °F 23.0 °F 24.1 °F 73% 30.24 in 10.0 mi North 11.5 mph - N/A   Overcast
4:38 PM 30.9 °F 21.2 °F 24.1 °F 76% 30.24 in 10.0 mi North 12.7 mph - N/A   Overcast
4:53 PM 30.9 °F 22.2 °F 23.0 °F 72% 30.27 in 10.0 mi NNW 10.4 mph - N/A   Overcast
5:53 PM 30.9 °F 21.7 °F 24.1 °F 76% 30.28 in 10.0 mi NNW 11.5 mph - N/A   Overcast
6:13 PM 30.9 °F 22.2 °F 24.1 °F 76% 30.28 in 10.0 mi NNW 10.4 mph - N/A   Overcast
6:37 PM 30.9 °F 20.7 °F 23.0 °F 72% 30.29 in 10.0 mi NNW 13.8 mph - N/A   Overcast
6:53 PM 30.0 °F 19.1 °F 21.9 °F 72% 30.33 in 10.0 mi NNW 15.0 mph - N/A   Overcast
7:43 PM 30.0 °F 21.1 °F 21.0 °F 69% 30.33 in 10.0 mi NNW 10.4 mph - N/A   Overcast
7:53 PM 28.9 °F 19.2 °F 21.0 °F 72% 30.36 in 10.0 mi NNW 11.5 mph - N/A   Overcast
8:53 PM 28.9 °F 18.2 °F 19.9 °F 69% 30.39 in 10.0 mi NW 13.8 mph - N/A   Overcast
9:53 PM 27.0 °F 15.2 °F 18.0 °F 69% 30.42 in 10.0 mi NNW 15.0 mph - N/A   Mostly Cloudy
10:53 PM 25.0 °F 15.5 °F 18.0 °F 75% 30.44 in 10.0 mi NNW 9.2 mph - N/A   Clear
11:53 PM 24.1 °F 13.7 °F 16.0 °F 71% 30.45 in 10.0 mi NNW 10.4 mph - N/A   Clear